Weather History for KEWB - September, 2014

Change the Weather History Date:

Wednesday, September 3, 2014

  Actual Average Record
Temperature  
Mean Temperature 72 °F -  
Max Temperature 82 °F 77 °F 94 °F (1973)
Min Temperature 61 °F 61 °F 48 °F (2001)
Cooling Degree Days 7    
Growing Degree Days 22 (Base 50)    
Moisture  
Dew Point 62 °F    
Average Humidity 66    
Maximum Humidity 93    
Minimum Humidity 39    
Precipitation  
Precipitation 0.00 in - - ()
Sea Level Pressure  
Sea Level Pressure 29.92 in    
Wind  
Wind Speed 6 mph (West)    
Max Wind Speed 10 mph    
Max Gust Speed 17 mph    
Visibility 10 miles    
Events      
Averages and records for this station are not official NWS values.
T = Trace of Precipitation, MM = Missing Value Source: NWS Daily Summary

Daily Weather History Graph

Daily Weather History Graph

Search for Another Location

Airport or City:

Trip Planner

Search our weather history database for the weather conditions in past years. The results will help you decide how hot, cold, wet, or windy it might be!

Date:

Astronomy

Sep. 03, 2014 Rise Set
Actual Time 6:11 AM EDT 7:13 PM EDT
Civil Twilight 5:43 AM EDT 7:42 PM EDT
Nautical Twilight 5:09 AM EDT 8:15 PM EDT
Astronomical Twilight 4:33 AM EDT 8:51 PM EDT
Moon 2:55 PM EDT (9/3) 12:00 AM EDT (9/3)
Length of Visible Light 13h 58m
Length of Day
13h 02m
Waxing Gibbous, 63% of the Moon is Illuminated
Sep 3
Waxing Gibbous
Sep 8
Full
Sep 15
Last Quarter
Sep 24
New
Oct 1
First Quarter

Hourly Weather History & Observations

Time (EDT) Temp. Heat Index Dew Point Humidity Pressure Visibility Wind Dir Wind Speed Gust Speed Precip Events Conditions
12:53 AM 73.0 °F - 70.0 °F 90% 29.75 in 10.0 mi SW 6.9 mph - N/A   Clear
1:53 AM 75.0 °F - 70.0 °F 84% 29.73 in 10.0 mi SW 10.4 mph - N/A   Clear
2:53 AM 73.9 °F - 69.1 °F 85% 29.72 in 10.0 mi SW 10.4 mph - N/A   Clear
3:53 AM 73.9 °F - 69.1 °F 85% 29.73 in 10.0 mi SW 5.8 mph - N/A   Clear
4:53 AM 75.9 °F - 69.1 °F 79% 29.76 in 10.0 mi WNW 9.2 mph 17.3 mph N/A   Clear
5:53 AM 73.9 °F - 63.0 °F 68% 29.81 in 10.0 mi NW 6.9 mph - N/A   Clear
6:53 AM 72.0 °F - 63.0 °F 73% 29.85 in 10.0 mi WNW 6.9 mph - N/A   Clear
7:53 AM 73.0 °F - 63.0 °F 71% 29.88 in 10.0 mi NW 6.9 mph - N/A   Clear
8:53 AM 75.0 °F - 62.1 °F 64% 29.90 in 10.0 mi WNW 10.4 mph - N/A   Clear
9:53 AM 73.9 °F - 61.0 °F 64% 29.93 in 10.0 mi NW 6.9 mph - N/A   Clear
10:53 AM 79.0 °F - 59.0 °F 50% 29.93 in 10.0 mi Variable 5.8 mph - N/A   Clear
11:53 AM 78.1 °F - 57.0 °F 48% 29.93 in 10.0 mi Variable 4.6 mph - N/A   Clear
12:53 PM 79.0 °F - 57.0 °F 47% 29.94 in 10.0 mi Variable 3.5 mph - N/A   Clear
1:53 PM 82.9 °F 82.1 °F 55.9 °F 39% 29.96 in 10.0 mi Variable 3.5 mph - N/A   Clear
2:53 PM 82.9 °F 82.6 °F 57.9 °F 42% 29.96 in 10.0 mi SW 8.1 mph - N/A   Clear
3:53 PM 82.0 °F 82.0 °F 57.9 °F 44% 29.96 in 10.0 mi WSW 8.1 mph - N/A   Clear
4:53 PM 82.9 °F 82.6 °F 57.9 °F 42% 29.97 in 10.0 mi WNW 5.8 mph - N/A   Clear
5:53 PM 82.0 °F 81.6 °F 55.9 °F 41% 29.99 in 10.0 mi Calm Calm - N/A   Clear
6:53 PM 75.9 °F - 59.0 °F 56% 30.01 in 10.0 mi WNW 3.5 mph - N/A   Clear
7:53 PM 71.1 °F - 61.0 °F 70% 30.03 in 10.0 mi Calm Calm - N/A   Clear
8:53 PM 66.9 °F - 61.0 °F 81% 30.05 in 10.0 mi WNW 3.5 mph - N/A   Clear
9:53 PM 64.9 °F - 60.1 °F 84% 30.06 in 10.0 mi Calm Calm - N/A   Clear
10:53 PM 62.1 °F - 59.0 °F 90% 30.07 in 10.0 mi Calm Calm - N/A   Clear
11:53 PM 61.0 °F - 59.0 °F 93% 30.08 in 10.0 mi Calm Calm - N/A   Clear